Weather History for Ellsworth AFB, SD

Change the Weather History Date:

Friday, November 8, 2013

  Actual Average Record
Temperature  
Mean Temperature 45 °F -  
Max Temperature 53 °F 46 °F 84 °F (1999)
Min Temperature 37 °F 25 °F 12 °F (2000)
Degree Days  
Heating Degree Days 20    
Moisture  
Dew Point 28 °F    
Average Humidity 54    
Maximum Humidity 76    
Minimum Humidity 30    
Precipitation  
Precipitation 0.00 in - - ()
Sea Level Pressure  
Sea Level Pressure 29.77 in    
Wind  
Wind Speed 15 mph (NW)    
Max Wind Speed 39 mph    
Max Gust Speed 46 mph    
Visibility 10 miles    
Events      
Averages and records for this station are not official NWS values.
T = Trace of Precipitation, MM = Missing Value Source: NWS Daily Summary

Daily Weather History Graph

Daily Weather History Graph

Search for Another Location

Airport:

Trip Planner

Search our weather history database for the weather conditions in past years. The results will help you decide how hot, cold, wet, or windy it might be!

Date:

Astronomy

Nov. 08, 2013 Rise Set
Actual Time 6:38 AM MST 4:32 PM MST
Civil Twilight 6:08 AM MST 5:03 PM MST
Nautical Twilight 5:33 AM MST 5:38 PM MST
Astronomical Twilight 4:59 AM MST 6:12 PM MST
Moon 11:36 AM MST (11/8) 9:57 PM MST (11/8)
Length of Visible Light 10h 55m
Length of Day
9h 54m
Waxing Crescent, 34% of the Moon is Illuminated
Nov 8
Waxing Crescent
Nov 9
First Quarter
Nov 17
Full
Nov 25
Last Quarter
Dec 2
New

Hourly Weather History & Observations

Time (MST) Temp. Windchill Dew Point Humidity Pressure Visibility Wind Dir Wind Speed Gust Speed Precip Events Conditions
12:58 AM 39.0 °F 32.3 °F 32.2 °F 76% 29.75 in 10.0 mi SSE 10.4 mph - N/A   Mostly Cloudy
1:58 AM 37.9 °F 32.1 °F 30.9 °F 76% 29.69 in 10.0 mi South 8.1 mph - N/A   Clear
2:58 AM 44.2 °F 38.4 °F 31.8 °F 62% 29.66 in 10.0 mi SSW 11.5 mph - N/A   Mostly Cloudy
3:58 AM 41.4 °F 38.4 °F 31.5 °F 68% 29.66 in 10.0 mi SSW 4.6 mph - N/A   Scattered Clouds
4:58 AM 42.1 °F 39.2 °F 30.9 °F 65% 29.65 in 10.0 mi South 4.6 mph - N/A   Overcast
5:58 AM 41.9 °F - 30.4 °F 64% 29.64 in 10.0 mi SE 2.3 mph - N/A   Partly Cloudy
6:58 AM 38.3 °F 33.9 °F 30.0 °F 72% 29.65 in 10.0 mi West 5.8 mph - N/A   Scattered Clouds
7:36 AM 42.8 °F 33.3 °F 32.0 °F 66% 29.64 in 10.0 mi North 24.2 mph 32.2 mph N/A   Overcast
7:58 AM 45.5 °F 37.8 °F 32.2 °F 60% 29.73 in 10.0 mi NNW 19.6 mph 28.8 mph N/A   Overcast
8:12 AM 44.6 °F 33.5 °F 35.6 °F 71% 29.66 in 10.0 mi NNW 39.1 mph 46.0 mph N/A   Scattered Clouds
8:25 AM 46.4 °F 36.9 °F 35.6 °F 66% 29.67 in 10.0 mi NNW 32.2 mph 43.7 mph N/A   Light Drizzle
8:26 AM 46.4 °F 36.3 °F 35.6 °F 66% 29.67 in 10.0 mi NNW 36.8 mph 43.7 mph N/A   Scattered Clouds
8:58 AM 46.2 °F 37.7 °F 34.7 °F 64% 29.74 in 10.0 mi NNW 25.3 mph 34.5 mph 0.00 in   Clear
9:58 AM 50.5 °F - 27.5 °F 41% 29.73 in 10.0 mi NNW 31.1 mph 39.1 mph N/A   Clear
10:58 AM 52.3 °F - 26.1 °F 36% 29.75 in 10.0 mi NW 27.6 mph 32.2 mph N/A   Clear
11:58 AM 52.5 °F - 25.5 °F 35% 29.75 in 10.0 mi NW 29.9 mph 41.4 mph N/A   Clear
12:55 PM 53.6 °F - 23.0 °F 30% 29.75 in 30.0 mi NNW 25.3 mph 32.2 mph N/A   Clear
1:55 PM 53.6 °F - 24.8 °F 33% 29.77 in 30.0 mi NNW 24.2 mph 31.1 mph N/A   Scattered Clouds
1:58 PM 53.2 °F - 25.2 °F 34% 29.77 in 10.0 mi NNW 23.0 mph 29.9 mph N/A   Clear
2:58 PM 50.5 °F - 25.0 °F 37% 29.79 in 10.0 mi NW 20.7 mph - N/A   Clear
3:58 PM 50.9 °F - 24.6 °F 36% 29.82 in 10.0 mi NW 17.3 mph - N/A   Clear
4:58 PM 43.0 °F 38.2 °F 24.8 °F 49% 29.87 in 10.0 mi WNW 8.1 mph - N/A   Clear
5:58 PM 42.1 °F 36.1 °F 24.1 °F 49% 29.88 in 10.0 mi WNW 10.4 mph - N/A   Clear
6:58 PM 43.2 °F 37.0 °F 23.5 °F 46% 29.89 in 10.0 mi WNW 11.5 mph - N/A   Mostly Cloudy
7:58 PM 43.3 °F 36.5 °F 25.0 °F 48% 29.91 in 10.0 mi NW 13.8 mph - N/A   Overcast
8:58 PM 40.3 °F 33.9 °F 25.3 °F 55% 29.94 in 10.0 mi WNW 10.4 mph - N/A   Scattered Clouds
9:58 PM 39.9 °F 34.5 °F 25.9 °F 57% 29.95 in 10.0 mi NW 8.1 mph - N/A   Overcast
10:58 PM 42.1 °F 39.2 °F 27.0 °F 55% 29.96 in 10.0 mi West 4.6 mph - N/A   Overcast
11:58 PM 42.8 °F 40.1 °F 25.7 °F 51% 29.99 in 10.0 mi North 4.6 mph - N/A   Overcast